Temp
57 56 55 55 55 53 52 51 51 50 50 51 53 53 52 50 50 49 46 45 44 41
56 55 55 55 55 54 53 51 50 49 49 49 50 50 49 47 44 45 45 43 40 41
46 50 53 53 53 53 52 51 49 43 43 42 44 44 46 43 40 42 41 41 37 38
40 42 44 50 51 48 43 44 45 44 40 41 42 40 42 42 42 42 41 41 40 40
36 37 36 40 41 43 44 45 43 42 41 40 40 41 43 40 39 41 39 39 39 39
34 34 34 34 36 38 43 44 41 43 42 41 39 39 41 41 39 39 38 37 37 37
32 33 33 34 34 35 36 39 41 42 42 41 39 38 37 37 36 36 36 36 37 37
30 32 33 33 33 34 34 35 35 36 36 36 37 37 36 37 36 36 36 35 35 36
29 30 30 32 33 33 33 34 34 35 35 34 34 39 40 38 36 36 36 35 35 35
26 27 28 30 31 31 32 33 33 33 33 34 34 39 39 38 35 35 36 36 35 34
23 24 26 28 28 29 30 30 31 32 32 33 33 39 39 37 35 35 35 35 35 35
19 21 22 24 25 27 28 29 29 31 31 31 32 38 39 37 34 33 34 35 35 35
19 19 17 18 19 24 26 28 29 30 29 31 31 36 38 37 34 33 32 33 33 33
18 18 18 17 19 19 19 22 24 26 27 28 29 31 36 38 33 33 31 32 31 33
MSLP
998.22 999.06 999.96 1000.76 1001.60 1002.73 1003.86 1004.56 1005.52 1006.12 1006.98 1008.07 1008.55 1008.52 1009.28 1010.20 1010.91 1011.74 1012.73 1013.54 1014.15 1015.03
998.18 999.00 999.89 1000.40 1001.19 1002.17 1003.17 1004.03 1004.94 1005.65 1006.40 1006.99 1008.60 1008.93 1008.91 1009.80 1010.62 1011.24 1011.98 1012.81 1013.57 1014.39
998.98 999.22 999.84 1000.61 1001.30 1002.10 1002.88 1003.77 1004.64 1005.46 1006.11 1006.78 1007.32 1009.01 1009.06 1009.46 1010.18 1010.94 1011.60 1012.33 1013.20 1013.92
999.86 1000.06 1000.31 1000.84 1001.53 1002.10 1002.84 1003.42 1004.31 1005.24 1005.95 1006.78 1007.54 1008.48 1008.53 1009.95 1009.92 1010.43 1011.30 1012.01 1012.66 1013.30
1000.72 1000.97 1001.21 1001.58 1002.01 1002.07 1002.75 1003.40 1004.06 1004.96 1005.78 1006.23 1007.05 1007.98 1008.13 1009.25 1009.93 1010.19 1010.85 1011.52 1012.30 1012.87
1001.94 1002.04 1002.37 1002.65 1002.62 1002.46 1002.79 1003.36 1004.08 1004.46 1005.22 1006.13 1006.73 1007.42 1007.79 1008.48 1009.16 1009.71 1010.25 1010.95 1011.67 1012.24
1003.28 1003.25 1003.53 1003.47 1003.35 1003.14 1003.18 1003.52 1003.84 1004.34 1004.75 1005.31 1006.08 1006.60 1007.29 1007.95 1008.73 1009.24 1009.92 1010.50 1011.14 1011.86
1004.32 1004.09 1004.17 1004.30 1004.14 1003.84 1003.78 1003.82 1004.10 1004.41 1004.68 1005.05 1005.35 1006.13 1006.97 1007.45 1008.29 1008.94 1009.61 1010.12 1010.71 1011.30
1005.45 1005.22 1005.16 1005.11 1004.82 1004.54 1004.62 1004.46 1004.51 1004.71 1005.07 1005.48 1005.64 1005.98 1006.25 1006.51 1007.85 1008.46 1009.13 1009.82 1010.39 1010.80
1006.55 1006.77 1006.54 1005.98 1005.55 1005.42 1005.43 1005.19 1005.32 1005.12 1005.23 1005.51 1005.62 1005.95 1006.50 1006.88 1007.59 1008.14 1008.71 1009.33 1009.86 1010.45
1008.22 1007.85 1007.32 1006.83 1006.47 1006.19 1006.06 1005.95 1005.80 1005.67 1005.66 1005.76 1005.89 1006.04 1006.37 1006.90 1007.42 1007.90 1008.49 1009.01 1009.37 1009.71
1009.09 1008.78 1008.24 1007.85 1007.48 1007.10 1006.75 1006.39 1006.21 1006.14 1006.10 1006.16 1006.22 1006.19 1006.45 1006.82 1007.38 1007.83 1008.23 1008.53 1008.95 1009.42
1009.71 1009.22 1008.97 1008.76 1008.32 1007.97 1007.59 1007.29 1006.95 1006.69 1006.57 1006.42 1006.46 1006.39 1006.44 1006.66 1007.23 1007.71 1008.16 1008.63 1009.02 1009.33
1010.08 1009.79 1009.65 1009.41 1009.11 1008.78 1008.38 1008.09 1007.84 1007.60 1007.39 1007.12 1006.88 1006.68 1006.54 1006.59 1006.98 1007.46 1008.01 1008.33 1008.77 1009.13
Wind_Speed
15 10 10 12 10 9 9 10 11 11 9 8 10 11 11 9 10 12 10 10 7 4
11 10 9 12 12 11 10 9 14 15 15 12 9 10 13 9 10 11 11 10 9 6
7 6 7 8 9 10 10 11 11 9 9 9 11 8 9 8 7 9 7 7 9 6
8 8 6 5 8 8 6 9 10 11 9 12 12 9 9 8 10 12 10 7 10 10
9 8 7 3 2 7 8 9 12 12 11 11 12 13 14 11 8 11 10 11 9 9
10 10 8 6 3 1 7 7 7 10 12 12 12 12 12 11 11 11 10 10 11 10
10 8 7 6 5 2 2 5 9 9 10 10 10 10 10 9 9 8 7 8 8 8
9 8 8 7 6 5 4 4 4 3 2 6 8 8 11 10 10 10 9 8 8 8
10 9 8 7 6 6 5 5 2 4 5 3 1 9 15 12 10 9 9 9 8 7
11 9 8 7 7 7 5 4 3 3 3 4 4 9 10 11 6 8 8 8 8 7
10 9 9 8 8 7 4 4 3 3 3 2 2 8 12 14 7 7 8 9 9 9
8 8 9 9 8 6 5 5 5 3 3 2 1 4 7 9 5 4 6 6 8 9
7 7 8 7 6 5 4 4 4 5 5 4 1 3 6 7 4 4 4 4 6 11
8 7 7 6 5 5 5 5 5 5 4 5 4 4 6 9 6 4 4 4 4 4
Wind_Direction
171 168 169 170 165 169 174 182 175 176 175 209 201 177 173 178 179 176 179 176 174 175
166 164 167 169 177 178 172 172 173 174 177 166 207 202 171 172 176 176 183 185 174 175
67 93 134 154 167 171 164 159 169 166 172 164 170 200 190 177 168 174 182 177 171 176
52 46 50 157 167 159 141 151 167 175 162 171 173 178 174 214 181 181 178 178 181 195
52 47 46 13 170 144 164 171 170 170 179 178 177 185 188 188 181 187 184 183 182 194
46 42 28 17 333 148 159 185 169 173 183 186 185 183 192 189 185 187 190 184 192 191
32 41 32 19 13 56 88 164 178 186 191 183 183 184 180 170 178 183 182 178 186 180
23 29 30 24 16 31 46 109 98 144 190 168 166 182 182 179 181 183 181 180 181 182
30 25 22 15 17 35 36 42 48 124 129 108 114 186 190 171 181 181 187 190 182 167
22 18 13 13 27 31 22 32 41 68 113 154 141 165 176 168 169 178 185 188 179 171
13 13 10 20 20 16 8 25 33 48 66 88 148 184 177 173 166 174 181 187 178 178
9 12 13 16 7 6 5 13 15 18 40 98 168 221 200 174 156 166 180 178 177 182
7 18 13 360 358 355 352 6 7 18 16 354 318 263 235 194 164 174 154 157 180 188
6 7 12 355 360 352 3 16 16 17 10 8 347 298 260 237 171 175 165 175 176 181